TimeEST,TemperatureF,Dew PointF,Humidity,Sea Level PressureIn,VisibilityMPH,Wind Direction,Wind SpeedMPH,Gust SpeedMPH,PrecipitationIn,Events,Conditions,WindDirDegrees,DateUTC
12:15 AM,39.2,33.8,81,29.64,10.0,NW,6.9,-,N/A,,Drizzle,320,2014-02-15 05:15:00
12:35 AM,39.2,35.6,87,29.63,10.0,NW,4.6,-,N/A,,Light Drizzle,310,2014-02-15 05:35:00
12:55 AM,37.4,35.6,93,29.62,10.0,Calm,Calm,-,N/A,,Overcast,0,2014-02-15 05:55:00
1:15 AM,35.6,35.6,100,29.62,10.0,ESE,3.5,-,N/A,,Overcast,110,2014-02-15 06:15:00
1:35 AM,35.6,35.6,100,29.62,10.0,Calm,Calm,-,N/A,,Light Drizzle,0,2014-02-15 06:35:00
1:55 AM,35.6,35.6,100,29.60,10.0,East,4.6,-,N/A,,Light Drizzle,100,2014-02-15 06:55:00
2:15 AM,35.6,35.6,100,29.59,10.0,ESE,4.6,-,N/A,,Overcast,120,2014-02-15 07:15:00
2:35 AM,35.6,35.6,100,29.57,10.0,Calm,Calm,-,N/A,,Overcast,0,2014-02-15 07:35:00
2:55 AM,37.4,33.8,87,29.56,10.0,ENE,3.5,-,N/A,,Light Drizzle,60,2014-02-15 07:55:00
3:15 AM,35.6,35.6,100,29.56,10.0,Calm,Calm,-,N/A,,Overcast,0,2014-02-15 08:15:00
3:35 AM,35.6,35.6,100,29.56,10.0,Calm,Calm,-,N/A,,Overcast,0,2014-02-15 08:35:00
3:55 AM,35.6,35.6,100,29.56,10.0,Calm,Calm,-,N/A,,Overcast,0,2014-02-15 08:55:00
4:15 AM,35.6,35.6,100,29.56,10.0,NNW,4.6,-,N/A,,Drizzle,330,2014-02-15 09:15:00
4:35 AM,35.6,35.6,100,29.56,7.0,West,3.5,-,N/A,Rain,Rain,280,2014-02-15 09:35:00
4:55 AM,35.6,35.6,100,29.57,5.0,Calm,Calm,-,0.01,Rain,Light Rain,0,2014-02-15 09:55:00
5:15 AM,35.6,35.6,100,29.57,4.0,Calm,Calm,-,N/A,Rain,Light Rain,0,2014-02-15 10:15:00
5:35 AM,35.6,35.6,100,29.56,3.0,Calm,Calm,-,0.02,Rain,Rain,0,2014-02-15 10:35:00
5:55 AM,33.8,33.8,100,29.57,3.0,Calm,Calm,-,0.02,,Overcast,0,2014-02-15 10:55:00
6:15 AM,35.6,35.6,100,29.58,2.5,Calm,Calm,-,0.02,,Overcast,0,2014-02-15 11:15:00
6:35 AM,35.6,35.6,100,29.58,4.0,WNW,6.9,-,0.02,,Overcast,290,2014-02-15 11:35:00
6:55 AM,35.6,35.6,100,29.59,7.0,West,6.9,-,0.02,,Overcast,280,2014-02-15 11:55:00
7:15 AM,35.6,35.6,100,29.60,10.0,WNW,6.9,-,0.01,,Overcast,290,2014-02-15 12:15:00
7:35 AM,33.8,33.8,100,29.61,5.0,WNW,11.5,20.7,0.01,Snow,Light Snow,290,2014-02-15 12:35:00
7:55 AM,33.8,33.8,100,29.63,1.5,WNW,15.0,21.9,0.01,Snow,Light Snow,290,2014-02-15 12:55:00
8:15 AM,32.0,30.2,93,29.64,3.0,WNW,15.0,27.6,N/A,Snow,Light Snow,300,2014-02-15 13:15:00
8:35 AM,30.2,30.2,100,29.67,1.5,WNW,13.8,27.6,N/A,Snow,Light Snow,290,2014-02-15 13:35:00
8:55 AM,30.2,30.2,100,29.69,1.2,WNW,11.5,19.6,N/A,Snow,Light Snow,290,2014-02-15 13:55:00
9:15 AM,28.4,28.4,100,29.70,1.0,WNW,18.4,27.6,N/A,Snow,Light Snow,300,2014-02-15 14:15:00
9:35 AM,30.2,26.6,86,29.71,2.0,WNW,20.7,27.6,N/A,Snow,Light Snow,300,2014-02-15 14:35:00
9:55 AM,28.4,24.8,86,29.72,7.0,WNW,21.9,31.1,N/A,,Overcast,300,2014-02-15 14:55:00
10:15 AM,28.4,24.8,86,29.73,7.0,NW,21.9,34.5,N/A,,Overcast,320,2014-02-15 15:15:00
10:35 AM,28.4,23.0,80,29.74,5.0,NW,19.6,27.6,N/A,,Haze,310,2014-02-15 15:35:00
10:55 AM,28.4,21.2,74,29.75,7.0,WNW,20.7,27.6,N/A,,Overcast,300,2014-02-15 15:55:00
11:15 AM,26.6,21.2,80,29.76,5.0,WNW,21.9,31.1,N/A,Snow,Light Snow,300,2014-02-15 16:15:00
11:35 AM,26.6,21.2,80,29.77,5.0,WNW,23.0,27.6,N/A,,Haze,300,2014-02-15 16:35:00
11:55 AM,26.6,19.4,74,29.78,5.0,WNW,21.9,32.2,N/A,Snow,Light Snow,300,2014-02-15 16:55:00
12:15 PM,26.6,17.6,69,29.80,7.0,NW,20.7,29.9,N/A,,Overcast,310,2014-02-15 17:15:00
12:35 PM,26.6,17.6,69,29.81,7.0,WNW,17.3,32.2,N/A,,Overcast,300,2014-02-15 17:35:00
12:55 PM,26.6,17.6,69,29.81,7.0,NW,18.4,34.5,N/A,,Overcast,310,2014-02-15 17:55:00
1:15 PM,26.6,17.6,69,29.82,10.0,WNW,15.0,27.6,N/A,,Overcast,300,2014-02-15 18:15:00
1:35 PM,26.6,17.6,69,29.83,7.0,WNW,13.8,27.6,N/A,Snow,Light Snow,300,2014-02-15 18:35:00
1:55 PM,26.6,17.6,69,29.84,10.0,West,16.1,24.2,N/A,,Overcast,280,2014-02-15 18:55:00
2:15 PM,26.6,17.6,69,29.85,10.0,WNW,10.4,18.4,N/A,,Overcast,290,2014-02-15 19:15:00
2:35 PM,26.6,17.6,69,29.86,10.0,WNW,13.8,24.2,N/A,,Overcast,290,2014-02-15 19:35:00
2:55 PM,26.6,17.6,69,29.88,10.0,West,13.8,24.2,N/A,,Overcast,280,2014-02-15 19:55:00
3:15 PM,26.6,17.6,69,29.89,10.0,West,11.5,27.6,N/A,,Overcast,280,2014-02-15 20:15:00
3:35 PM,26.6,17.6,69,29.90,10.0,WNW,11.5,23.0,N/A,,Overcast,290,2014-02-15 20:35:00
3:55 PM,26.6,17.6,69,29.90,10.0,WNW,9.2,18.4,N/A,,Overcast,290,2014-02-15 20:55:00
4:15 PM,26.6,17.6,69,29.90,10.0,West,9.2,-,N/A,,Overcast,270,2014-02-15 21:15:00
4:35 PM,26.6,17.6,69,29.91,10.0,WNW,8.1,19.6,N/A,,Mostly Cloudy,290,2014-02-15 21:35:00
4:55 PM,26.6,17.6,69,29.91,10.0,West,10.4,-,N/A,,Mostly Cloudy,280,2014-02-15 21:55:00
5:15 PM,24.8,17.6,74,29.92,10.0,WNW,11.5,21.9,N/A,,Scattered Clouds,290,2014-02-15 22:15:00
5:35 PM,24.8,17.6,74,29.93,10.0,WNW,16.1,21.9,N/A,,Clear,290,2014-02-15 22:35:00
5:55 PM,24.8,17.6,74,29.94,10.0,WNW,16.1,24.2,N/A,,Clear,290,2014-02-15 22:55:00
6:15 PM,24.8,15.8,69,29.95,10.0,West,13.8,21.9,N/A,,Clear,280,2014-02-15 23:15:00
6:35 PM,24.8,15.8,69,29.97,10.0,West,13.8,24.2,N/A,,Scattered Clouds,280,2014-02-15 23:35:00
6:55 PM,23.0,15.8,74,29.98,10.0,WNW,19.6,26.5,N/A,,Mostly Cloudy,290,2014-02-15 23:55:00
7:15 PM,23.0,15.8,74,29.98,10.0,WNW,19.6,28.8,N/A,,Scattered Clouds,290,2014-02-16 00:15:00
7:35 PM,23.0,15.8,74,29.98,10.0,WNW,15.0,25.3,N/A,,Clear,300,2014-02-16 00:35:00
7:55 PM,23.0,15.8,74,29.99,10.0,WNW,17.3,-,N/A,,Clear,300,2014-02-16 00:55:00
8:15 PM,21.2,15.8,80,29.99,10.0,WNW,13.8,19.6,N/A,,Clear,290,2014-02-16 01:15:00
8:35 PM,21.2,15.8,80,29.99,10.0,WNW,8.1,-,N/A,,Clear,290,2014-02-16 01:35:00
8:55 PM,21.2,15.8,80,29.98,10.0,WNW,9.2,-,N/A,,Clear,300,2014-02-16 01:55:00
9:15 PM,21.2,15.8,80,29.99,10.0,West,5.8,-,N/A,,Clear,280,2014-02-16 02:15:00
9:35 PM,21.2,15.8,80,29.99,10.0,West,8.1,-,N/A,,Mostly Cloudy,280,2014-02-16 02:35:00
9:55 PM,21.2,15.8,80,30.00,10.0,West,10.4,17.3,N/A,,Mostly Cloudy,280,2014-02-16 02:55:00
10:15 PM,21.2,15.8,80,30.01,10.0,WNW,10.4,20.7,N/A,,Scattered Clouds,290,2014-02-16 03:15:00
10:35 PM,21.2,15.8,80,30.02,10.0,West,4.6,17.3,N/A,,Mostly Cloudy,280,2014-02-16 03:35:00
10:55 PM,21.2,15.8,80,30.02,10.0,West,6.9,-,N/A,,Mostly Cloudy,270,2014-02-16 03:55:00
11:15 PM,21.2,15.8,80,30.02,10.0,West,8.1,-,N/A,,Scattered Clouds,280,2014-02-16 04:15:00
11:35 PM,19.4,15.8,86,30.02,10.0,WSW,3.5,-,N/A,,Mostly Cloudy,250,2014-02-16 04:35:00
11:55 PM,19.4,15.8,86,30.02,10.0,West,3.5,-,N/A,,Scattered Clouds,280,2014-02-16 04:55:00